Tracking 34717 objects as of 14-Jul-2026
HD Live streaming from Space Station
objects crossing your sky now

ARIANE 44L DEB

Track ARIANE 44L DEB now!


NORAD ID: 24741
Int'l Code: 1991-003H
Perigee: 663.8 km
Apogee: 30,646.6 km
Inclination: 6.4 °
Period: 542.2 minutes
Semi major axis: 22026 km
RCS: 0.2921 m2 (medium)
Launch date: January 15, 1991
Source: France (FR)
Launch site: FRENCH GUIANA (FRGUI)

Note: This is SATELLITE DEBRIS
Your satellite tracking list
Your tracking list is empty




NASA's NSSDC Master Catalog

Two Line Element Set (TLE):
1 24741U 91003H   26195.56760046  .00000012  00000-0  31606-3 0  9990
2 24741   6.4159 166.3413 6806161 240.1249  38.3100  2.65578250200477
Source of the keplerian elements: AFSPC